timestamp,surface_pressure_avg,surface_temp_avg,battery_voltage,lat,long
2023-07-27 00:09:00+00:00,224.0331,22.1,12.65,47.84626,-54.09684
2023-07-27 00:19:00+00:00,226.0064,22.1,12.65,47.84626,-54.09684
2023-07-27 00:29:00+00:00,224.0865,22.1,12.65,47.84626,-54.09684
2023-07-27 00:39:00+00:00,228.3048,22.1,12.65,47.84626,-54.09684
2023-07-27 00:49:00+00:00,232.9998,22.1,12.65,47.84626,-54.09684
2023-07-27 00:59:00+00:00,233.453,22.1,12.65,47.84626,-54.09684
2023-07-27 01:09:00+00:00,234.1214,22.1,12.65,47.84626,-54.09684
2023-07-27 01:19:00+00:00,235.6931,22.1,12.65,47.84626,-54.09684
2023-07-27 01:29:00+00:00,235.9681,22.1,12.65,47.84626,-54.09684
2023-07-27 01:39:00+00:00,236.8814,22.1,12.65,47.84626,-54.09684
2023-07-27 01:49:00+00:00,240.0347,22.0,12.65,47.84626,-54.09684
2023-07-27 01:59:00+00:00,243.0731,21.99,12.65,47.84626,-54.09684
2023-07-27 02:09:00+00:00,243.9597,21.96,12.65,47.84626,-54.09684
2023-07-27 02:19:01+00:00,244.7281,21.98,12.65,47.84626,-54.09684
2023-07-27 02:29:01+00:00,248.4548,22.0,12.65,47.84626,-54.09684
2023-07-27 02:39:01+00:00,250.2547,22.07,12.65,47.84626,-54.09684
2023-07-27 02:49:01+00:00,248.9997,21.97,12.65,47.84626,-54.09684
2023-07-27 02:59:01+00:00,251.3514,21.69,12.65,47.84626,-54.09684
2023-07-27 03:09:01+00:00,259.1348,21.7,12.65,47.84626,-54.09684
2023-07-27 03:19:00+00:00,262.6981,21.7,12.57,47.84626,-54.09684
2023-07-27 03:29:00+00:00,263.0381,21.69,12.57,47.84626,-54.09684
2023-07-27 03:39:00+00:00,269.1114,21.7,12.57,47.84626,-54.09684
2023-07-27 03:49:00+00:00,276.0914,21.7,12.57,47.84626,-54.09684
2023-07-27 03:59:00+00:00,279.5898,21.7,12.57,47.84626,-54.09684
2023-07-27 04:09:00+00:00,284.6847,21.66,12.57,47.84626,-54.09684
2023-07-27 04:19:00+00:00,289.8113,21.7,12.57,47.84626,-54.09684
2023-07-27 04:29:00+00:00,293.0614,21.6,12.57,47.84626,-54.09684
2023-07-27 04:39:00+00:00,294.08299999999997,21.5,12.57,47.84626,-54.09684
2023-07-27 04:49:00+00:00,296.5914,21.54,12.57,47.84626,-54.09684
2023-07-27 04:59:00+00:00,298.5497,21.6,12.57,47.84626,-54.09684
2023-07-27 05:09:00+00:00,301.1263,21.6,12.57,47.84626,-54.09684
2023-07-27 05:19:00+00:00,301.4197,21.66,12.57,47.84626,-54.09684
2023-07-27 05:29:00+00:00,299.5747,21.75,12.57,47.84626,-54.09684
2023-07-27 05:39:00+00:00,299.6563,21.83,12.57,47.84626,-54.09684
2023-07-27 05:49:00+00:00,303.833,22.1,12.57,47.84626,-54.09684
2023-07-27 05:59:00+00:00,306.888,21.83,12.57,47.84626,-54.09684
2023-07-27 06:09:00+00:00,306.298,21.36,12.57,47.84626,-54.09684
2023-07-27 06:19:00+00:00,306.08799999999997,21.2,12.57,47.84626,-54.09684
2023-07-27 06:29:00+00:00,310.6663,21.16,12.57,47.84626,-54.09684
2023-07-27 06:39:00+00:00,311.5864,21.3,12.57,47.84626,-54.09684
2023-07-27 06:49:00+00:00,308.133,21.29,12.57,47.84626,-54.09684
2023-07-27 06:59:00+00:00,309.9613,20.5,12.57,47.84626,-54.09684
2023-07-27 07:09:00+00:00,314.5897,20.87,12.57,47.84626,-54.09684
2023-07-27 07:19:00+00:00,310.233,20.81,12.57,47.84626,-54.09684
2023-07-27 07:29:00+00:00,300.8246,20.8,12.57,47.84626,-54.09684
2023-07-27 07:39:00+00:00,300.7914,20.68,12.57,47.84626,-54.09684
2023-07-27 07:49:00+00:00,302.8113,20.96,12.57,47.84626,-54.09684
2023-07-27 07:59:00+00:00,294.3614,21.25,12.57,47.84626,-54.09684
2023-07-27 08:09:00+00:00,287.738,21.27,12.57,47.84626,-54.09684
2023-07-27 08:19:00+00:00,287.9514,21.13,12.49,47.84626,-54.09684
2023-07-27 08:29:00+00:00,281.8397,21.54,12.49,47.84626,-54.09684
2023-07-27 08:39:00+00:00,268.8947,21.67,12.49,47.84626,-54.09684
2023-07-27 08:49:00+00:00,265.0798,21.6,12.49,47.84626,-54.09684
2023-07-27 08:59:00+00:00,265.0348,21.58,12.49,47.84626,-54.09684
2023-07-27 09:09:00+00:00,257.8047,21.5,12.49,47.84626,-54.09684
2023-07-27 09:19:00+00:00,247.8897,21.49,12.57,47.84626,-54.09684
2023-07-27 09:29:00+00:00,243.1081,21.4,12.57,47.84626,-54.09684
2023-07-27 09:39:00+00:00,243.0865,21.3,12.57,47.84626,-54.09684
2023-07-27 09:49:00+00:00,238.6364,21.26,12.57,47.84626,-54.09684
2023-07-27 09:59:00+00:00,232.0914,21.2,12.57,47.84626,-54.09684
2023-07-27 10:09:00+00:00,228.3098,21.2,12.57,47.84626,-54.09684
2023-07-27 10:19:00+00:00,226.2464,21.2,12.57,47.84626,-54.09684
2023-07-27 10:29:00+00:00,225.9981,21.1,12.57,47.84626,-54.09684
2023-07-27 10:39:00+00:00,223.2781,21.07,12.57,47.84626,-54.09684
2023-07-27 10:49:00+00:00,219.8248,21.09,12.57,47.84626,-54.09684
2023-07-27 10:59:00+00:00,216.6914,21.0,12.57,47.84626,-54.09684
2023-07-27 11:09:00+00:00,216.3081,20.9,12.57,47.84626,-54.09684
2023-07-27 11:19:00+00:00,219.8381,20.86,12.57,47.84626,-54.09684
2023-07-27 11:29:00+00:00,218.1098,20.88,12.57,47.84626,-54.09684
2023-07-27 11:39:00+00:00,213.4715,20.88,12.57,47.84626,-54.09684
2023-07-27 11:49:00+00:00,215.1031,20.81,12.57,47.84626,-54.09684
2023-07-27 11:59:00+00:00,220.8864,20.8,12.57,47.84626,-54.09684
2023-07-27 12:09:00+00:00,222.7365,20.8,12.57,47.84626,-54.09684
2023-07-27 12:19:00+00:00,220.2531,20.9,13.13,47.84626,-54.09684
2023-07-27 12:29:00+00:00,225.4598,20.8,13.13,47.84626,-54.09684
2023-07-27 12:39:00+00:00,229.0414,20.7,13.13,47.84626,-54.09684
2023-07-27 12:49:00+00:00,226.5364,20.74,13.13,47.84626,-54.09684
2023-07-27 12:59:00+00:00,229.2714,20.8,13.13,47.84626,-54.09684
2023-07-27 13:09:00+00:00,236.3631,20.72,13.13,47.84626,-54.09684
2023-07-27 13:19:00+00:00,234.1864,20.73,12.97,47.84626,-54.09684
2023-07-27 13:29:00+00:00,232.2498,20.97,12.97,47.84626,-54.09684
2023-07-27 13:39:00+00:00,238.9465,20.76,12.97,47.84626,-54.09684
2023-07-27 13:49:00+00:00,243.1364,20.6,12.97,47.84626,-54.09684
2023-07-27 13:59:00+00:00,240.7498,20.69,12.97,47.84626,-54.09684
2023-07-27 14:09:00+00:00,242.4648,20.6,12.97,47.84626,-54.09684
2023-07-27 14:19:00+00:00,249.0631,20.5,12.73,47.84626,-54.09684
2023-07-27 14:29:00+00:00,250.2864,20.64,12.73,47.84626,-54.09684
2023-07-27 14:39:00+00:00,247.0647,20.7,12.73,47.84626,-54.09684
2023-07-27 14:49:00+00:00,251.9015,20.46,12.73,47.84626,-54.09684
2023-07-27 14:59:00+00:00,254.7598,20.53,12.73,47.84626,-54.09684
2023-07-27 15:09:00+00:00,251.4198,21.09,12.73,47.84626,-54.09684
2023-07-27 15:19:00+00:00,251.0648,21.29,12.81,47.84626,-54.09684
2023-07-27 15:29:00+00:00,263.0781,20.48,12.81,47.84626,-54.09684
2023-07-27 15:39:00+00:00,271.3531,20.87,12.81,47.84626,-54.09684
2023-07-27 15:49:00+00:00,275.0231,21.35,12.81,47.84626,-54.09684
2023-07-27 15:59:00+00:00,279.668,20.6,12.81,47.84626,-54.09684
2023-07-27 16:09:00+00:00,292.6464,20.68,12.81,47.84626,-54.09684
2023-07-27 16:19:00+00:00,298.9348,21.16,12.97,47.84626,-54.09684
2023-07-27 16:29:00+00:00,300.848,21.2,12.97,47.84626,-54.09684
2023-07-27 16:39:00+00:00,304.1663,20.18,12.97,47.84626,-54.09684
2023-07-27 16:49:00+00:00,313.0513,20.2,12.97,47.84626,-54.09684
2023-07-27 16:59:00+00:00,315.5446,20.78,12.97,47.84626,-54.09684
2023-07-27 17:09:00+00:00,315.078,20.8,12.97,47.84626,-54.09684
2023-07-27 17:19:00+00:00,320.0063,20.5,12.97,47.84626,-54.09684
2023-07-27 17:29:00+00:00,327.128,20.44,12.97,47.84626,-54.09684
2023-07-27 17:39:00+00:00,326.778,20.88,12.97,47.84626,-54.09684
2023-07-27 17:49:00+00:00,325.8547,20.76,12.97,47.84626,-54.09684
2023-07-27 17:59:00+00:00,333.2996,20.58,12.97,47.84626,-54.09684
2023-07-27 18:09:00+00:00,337.3763,20.86,12.97,47.84626,-54.09684
2023-07-27 18:19:00+00:00,332.05800000000005,21.1,12.81,47.84626,-54.09684
2023-07-27 18:29:00+00:00,331.4980000000001,21.1,12.81,47.84626,-54.09684
2023-07-27 18:39:00+00:00,336.1129,21.1,12.81,47.84626,-54.09684
2023-07-27 18:49:00+00:00,337.7579,21.17,12.81,47.84626,-54.09684
2023-07-27 18:59:00+00:00,333.0379,21.3,12.81,47.84626,-54.09684
2023-07-27 19:09:00+00:00,333.4847,21.0,12.81,47.84626,-54.09684
2023-07-27 19:19:00+00:00,333.4529,21.1,12.73,47.84626,-54.09684
2023-07-27 19:29:00+00:00,331.8546,21.18,12.73,47.84626,-54.09684
2023-07-27 19:39:00+00:00,332.903,21.2,12.73,47.84626,-54.09684
2023-07-27 19:49:00+00:00,333.9113,21.2,12.73,47.84626,-54.09684
2023-07-27 19:59:00+00:00,330.043,21.22,12.73,47.84626,-54.09684
2023-07-27 20:09:00+00:00,320.048,21.24,12.73,47.84626,-54.09684
2023-07-27 20:19:00+00:00,317.6579,21.28,12.65,47.84626,-54.09684
2023-07-27 20:29:00+00:00,318.0579,21.3,12.65,47.84626,-54.09684
2023-07-27 20:39:00+00:00,315.1213,21.48,12.65,47.84626,-54.09684
2023-07-27 20:49:00+00:00,306.5364,21.58,12.65,47.84626,-54.09684
2023-07-27 20:59:00+00:00,300.533,21.5,12.65,47.84626,-54.09684
2023-07-27 21:09:00+00:00,294.2714,21.51,12.65,47.84626,-54.09684
2023-07-27 21:19:00+00:00,287.1597,21.6,12.65,47.84626,-54.09684
2023-07-27 21:29:00+00:00,280.9664,21.62,12.65,47.84626,-54.09684
2023-07-27 21:39:00+00:00,278.0497,21.64,12.65,47.84626,-54.09684
2023-07-27 21:49:00+00:00,275.3781,21.64,12.65,47.84626,-54.09684
2023-07-27 21:59:00+00:00,271.578,21.7,12.65,47.84626,-54.09684
2023-07-27 22:09:00+00:00,267.7448,21.7,12.65,47.84626,-54.09684
2023-07-27 22:19:00+00:00,266.0131,21.75,12.57,47.84626,-54.09684
2023-07-27 22:29:00+00:00,261.6781,21.8,12.57,47.84626,-54.09684
2023-07-27 22:39:00+00:00,256.7781,21.8,12.57,47.84626,-54.09684
2023-07-27 22:49:00+00:00,250.5347,21.79,12.57,47.84626,-54.09684
2023-07-27 22:59:00+00:00,248.1048,21.79,12.57,47.84626,-54.09684
2023-07-27 23:09:00+00:00,247.7531,21.77,12.57,47.84626,-54.09684
2023-07-27 23:19:00+00:00,246.7614,21.7,12.57,47.84626,-54.09684
2023-07-27 23:29:00+00:00,243.2464,21.7,12.57,47.84626,-54.09684
2023-07-27 23:39:00+00:00,239.563,21.74,12.57,47.84626,-54.09684
2023-07-27 23:49:00+00:00,236.6381,21.79,12.57,47.84626,-54.09684
2023-07-27 23:59:00+00:00,235.7031,21.79,12.57,47.84626,-54.09684
